Location: G?julap?du
(16.5372°N, 81.0979°E)
Time: 14:51:28
(UTC+00:00)

Sakura Rocket - Pass Details

Date: 14 April 2026
Orbit: 474 x 1688 km, 28.7° (Epoch: 10 May)

Event Time Altitude Azimuth Distance (km) Brightness Sun altitude
Rises 14:28:51 0° 298° (WNW) 2,999 8.0 -23.6°
Reaches altitude 10° 14:30:56 10° 301° (WNW) 2,219 6.9 -24.1°
Maximum altitude 14:36:11 70° 25° (NNE) 956 3.8 -25.2°
Enters shadow 14:37:18 58° 79° (ENE) 1,087 3.9 -25.5°
